Location: Newark
(23.3970°S, 47.6010°W)
Time: 17:20:38
(UTC+00:00)

N. Korean satellite - Visible Passes

Search period start: 26 January 2020 00:00
Search period end: 05 February 2020 00:00
Orbit: 454 x 507 km, 97.2° (Epoch: 25 January)

Date Brightness Start Highest point End Pass type
(mag) Time Alt. Az. Time Alt. Az. Time Alt. Az.
27 Jan 6.9 08:19:46 10° NNE 08:23:29 79° ESE 08:27:16 10° S visible
28 Jan 8.8 07:54:47 10° NE 07:58:05 31° ESE 08:01:27 10° SSE visible
29 Jan 10.0 07:30:49 10° ENE 07:32:46 14° ESE 07:34:44 10° SE visible
31 Jan 7.5 08:11:14 10° NNE 08:14:54 57° ESE 08:18:35 10° S visible
01 Feb 9.3 07:46:30 10° NE 07:49:31 23° ESE 07:52:33 10° SSE visible
02 Feb 10.4 07:23:33 10° E 07:24:13 10° ESE 07:24:53 10° ESE visible
04 Feb 8.1 08:02:45 10° NNE 08:06:17 41° ESE 08:09:49 10° S visible
